Tracking 18850 objects as of 21-Nov-2017
HD Live streaming from Space Station
objects crossing your sky now

OPS 9343 (IDSCS 22)

Track OPS 9343 (IDSCS 22) now!
OPS 9343 (IDSCS 22) is classified as:


NORAD ID: 3286
Int'l Code: 1968-050C
Perigee: 33,751.5 km
Apogee: 33,884.3 km
Inclination: 1.5 °
Period: 1,336.3 minutes
Semi major axis: 40188 km
RCS: 0.2393 m2 (medium)
Launch date: June 13, 1968
Source: United States (US)
Launch site: AIR FORCE EASTERN TEST RANGE (AFETR)
aabbcc
Your satellite tracking list
Your tracking list is empty




NASA's NSSDC Master Catalog

Two Line Element Set (TLE):
1  3286U 68050C   17324.56438236 -.00000047 +00000-0 +00000-0 0  9994
2  3286 001.4601 040.7475 0016524 103.1121 280.3150 01.07756711013724
Source of the keplerian elements: AFSPC